Weather past 2 weeks in Cayenne, French Guiana

Now
79 °F

Clear.


Feels Like: 82 °F
Forecast: 78 / 87 °F
Wind: 2 mph from North

Location: Cayenne / Rochambeau

Current Time: Sep 17, 2014 at 9:01:53 AM

Latest Report: Sep 17, 2014 at 8:30 AM


Visibility: N/A

Pressure: 29.92 "Hg

Humidity: 89%

Dew point: 75 °F

Location of CayenneLocation

Historic Weather in Cayenne — Graph

°F

Cayenne temperature yesterday

Maximum temperature yesterday: 91 °F (at 12:00 PM)
Minimum temperature yesterday: 73 °F (at 5:30 AM)
Average temperature yesterday: 82 °F

Past Weeks' High & Low Weather Summary

 TemperatureHumidityPressure
High91 °F (Sep 15, 1:00 PM)100% (Sep 3, 7:00 AM)29.98 "Hg (Sep 3, 7:00 AM)
Low72 °F (Sep 3, 3:30 AM)49% (Sep 3, 1:30 PM)29.80 "Hg (Sep 10, 4:30 PM)
Average80 °F79%29.90 "Hg
* Reported Sep 2 8:00 AM — Sep 17 8:00 AM, Cayenne, Weather by CustomWeather, © 2014

Note: Actual official high and low records may vary slightly from our data, if they occured in-between our weather recording intervals... More about our weather records

Advertising

Cayenne weather history for previous 24 hours

 ConditionsComfort  
Time TempWeatherWind HumidityBarometerVisibility
8:00 AM
Sep 17
77 °FClear.2 mph94%29.92 "HgN/A
7:30 AM75 °FClear.No wind94%29.89 "HgN/A
7:00 AM75 °FClear.No wind94%29.89 "HgN/A
6:30 AM75 °FMild.2 mph94%29.89 "HgN/A
6:00 AM75 °FClear.No wind94%29.86 "HgN/A
5:30 AM75 °FClear.1 mph94%29.86 "HgN/A
5:00 AM75 °FMild.No wind94%29.86 "HgN/A
4:30 AM75 °FClear.No wind94%29.86 "HgN/A
4:00 AM75 °FOvercast.2 mph94%29.86 "HgN/A
3:30 AM75 °FMostly cloudy.No wind89%29.86 "HgN/A
3:00 AM75 °FOvercast.No wind89%29.86 "HgN/A
2:30 AM75 °FClear.1 mph89%29.86 "HgN/A
2:00 AM75 °FPassing clouds.No wind89%29.89 "HgN/A
1:30 AM77 °FClear.No wind89%29.89 "HgN/A
1:00 AM77 °FPassing clouds.2 mph89%29.89 "HgN/A
12:30 AM77 °FPassing clouds.2 mph89%29.92 "HgN/A
12:00 AM79 °FClear.2 mph84%29.92 "HgN/A
11:30 PM
Sep 16
79 °FWarm.5 mph84%29.92 "HgN/A
11:00 PM79 °FClear.3 mph84%29.92 "HgN/A
10:30 PM79 °FClear.3 mph84%29.92 "HgN/A
10:00 PM79 °FWarm.3 mph84%29.92 "HgN/A
9:30 PM81 °FWarm.No wind79%29.89 "HgN/A
9:00 PM81 °FClear.2 mph79%29.89 "HgN/A
8:30 PM81 °FClear.6 mph79%29.89 "HgN/A
8:00 PM81 °FClear.6 mph79%29.86 "HgN/A
7:30 PM81 °FClear.6 mph79%29.86 "HgN/A
7:00 PM82 °FClear.5 mph74%29.86 "HgN/A
6:30 PM82 °FClear.8 mph79%29.86 "HgN/A
6:00 PM84 °FClear.9 mph70%29.86 "HgN/A
5:30 PM84 °FWarm.15 mph70%29.83 "HgN/A
5:00 PM88 °FWarm.10 mph59%29.86 "HgN/A
4:30 PM88 °FWarm.12 mph55%29.83 "HgN/A
4:00 PM90 °FHot.13 mph59%29.86 "HgN/A
3:30 PM88 °FThundershowers. Cloudy.13 mph62%29.86 "HgN/A
3:00 PM90 °FThundershowers. Scattered clouds.12 mph55%29.86 "HgN/A
2:30 PM91 °FPassing clouds.8 mph56%29.86 "HgN/A
2:00 PM91 °FPassing clouds.12 mph59%29.86 "HgN/A
1:30 PM90 °FBroken clouds.7 mph63%29.89 "HgN/A
1:00 PM91 °FPassing clouds.2 mph49%29.89 "HgN/A
12:30 PM91 °FBroken clouds.5 mph49%29.92 "HgN/A
12:00 PM91 °FScattered clouds.3 mph52%29.92 "HgN/A
11:30 AM90 °FPassing clouds.5 mph59%29.95 "HgN/A
11:00 AM90 °FPartly sunny.6 mph59%29.95 "HgN/A
10:30 AM88 °FBroken clouds.3 mph62%29.95 "HgN/A
10:00 AM86 °FScattered clouds.6 mph66%29.95 "HgN/A
9:30 AM84 °FBroken clouds.6 mph74%29.95 "HgN/A
9:00 AM82 °FPartly sunny.3 mph79%29.95 "HgN/A
Weather by CustomWeather, © 2014

See weather overviewHow to use our weather pages